Philip, SD

4:19 AM MDT on May 20, 2018 (GMT -0600)
Philip

Weather History for KPHP - November, 2012

Change the Weather History Date:

Saturday, November 10, 2012

  Actual Average Record
Temperature  
Mean Temperature 27 °F 37 °F  
Max Temperature 37 °F 50 °F 78 °F (1958)
Min Temperature 16 °F 23 °F -4 °F (1986)
Degree Days  
Heating Degree Days 38 28  
Month to date heating degree days 245 260  
Since 1 July heating degree days 872 963  
Cooling Degree Days 0 0  
Month to date cooling degree days 0 0  
Year to date cooling degree days 1202 818  
Moisture  
Dew Point 24 °F    
Average Humidity 87    
Maximum Humidity 100    
Minimum Humidity 73    
Precipitation  
Precipitation 0.07 in 0.02 in 0.19 in (2006)
Month to date precipitation 0.13 0.27  
Year to date precipitation 6.93 16.57  
Sea Level Pressure  
Sea Level Pressure 29.73 in    
Wind  
Wind Speed 20 mph (NNW)    
Max Wind Speed 35 mph    
Max Gust Speed 43 mph    
Visibility 4 miles    
Events Fog , Snow    
T = Trace of Precipitation, MM = Missing Value Source: NWS Daily Summary

Daily Weather History Graph

Daily Weather History Graph

Search for Another Location

Airport or City:

Astronomy

Nov. 10, 2012 Rise Set
Actual Time 6:35 AM MST 4:24 PM MST
Civil Twilight 6:04 AM MST 4:55 PM MST
Nautical Twilight 5:30 AM MST 5:30 PM MST
Astronomical Twilight 4:56 AM MST 6:03 PM MST
Moon 2:35 AM MST (11/10) 2:18 PM MST (11/10)
Length of Visible Light 10h 50m
Length of Day
9h 48m
Waning Crescent, 14% of the Moon is Illuminated
Nov 10
Waning Crescent
Nov 13
New
Nov 20
First Quarter
Nov 28
Full
Dec 6
Last Quarter

Hourly Weather History & Observations

Time (MST) Temp. Windchill Dew Point Humidity Pressure Visibility Wind Dir Wind Speed Gust Speed Precip Events Conditions
12:52 AM 37.4 °F 32.8 °F 35.6 °F 93% 29.62 in 2.0 mi NE 5.8 mph - N/A   Overcast
12:55 AM 37.0 °F 32.4 °F 36.0 °F 96% 29.66 in 2.0 mi NE 5.8 mph - N/A   Overcast
1:25 AM 37.4 °F 32.8 °F 35.6 °F 93% 29.63 in 3.0 mi North 5.8 mph - N/A   Overcast
1:55 AM 36.0 °F 29.6 °F 35.1 °F 97% 29.65 in 3.0 mi NE 8.1 mph - N/A   Overcast
2:55 AM 36.0 °F 31.1 °F 35.1 °F 97% 29.65 in 3.0 mi NNW 5.8 mph - N/A   Overcast
3:04 AM 35.6 °F 30.7 °F 35.6 °F 100% 29.62 in 2.5 mi WNW 5.8 mph - N/A   Overcast
3:18 AM 35.6 °F 29.9 °F 35.6 °F 100% 29.61 in 3.0 mi NW 6.9 mph - N/A   Overcast
3:55 AM 36.0 °F 29.6 °F 35.1 °F 97% 29.63 in 4.0 mi NNW 8.1 mph - N/A   Overcast
4:43 AM 35.6 °F 29.2 °F 35.6 °F 100% 29.59 in 6.0 mi North 8.1 mph - N/A   Overcast
4:55 AM 36.0 °F 29.6 °F 35.1 °F 97% 29.63 in 6.0 mi NNW 8.1 mph - N/A   Overcast
5:55 AM 35.1 °F 26.4 °F 34.0 °F 96% 29.64 in 5.0 mi NNW 12.7 mph - N/A   Overcast
6:55 AM 35.1 °F 25.5 °F 33.1 °F 92% 29.66 in 9.0 mi NNW 15.0 mph - N/A   Overcast
7:55 AM 34.0 °F 23.8 °F 32.0 °F 92% 29.65 in 10.0 mi NNW 16.1 mph - N/A   Overcast
8:55 AM 34.0 °F 22.7 °F 32.0 °F 92% 29.65 in 10.0 mi NNW 19.6 mph - N/A   Overcast
9:55 AM 34.0 °F 23.8 °F 32.0 °F 92% 29.69 in 10.0 mi NW 16.1 mph 21.9 mph N/A   Overcast
10:55 AM 32.0 °F 19.5 °F 30.0 °F 92% 29.68 in 5.0 mi NW 21.9 mph 32.2 mph N/A   Overcast
11:39 AM 32.0 °F 19.2 °F 30.2 °F 93% 29.61 in 10.0 mi NNW 23.0 mph 33.4 mph N/A   Overcast
11:55 AM 30.9 °F 17.5 °F 30.9 °F 100% 29.64 in 10.0 mi NNW 24.2 mph 34.5 mph N/A   Overcast
12:12 PM 30.2 °F 16.5 °F 28.4 °F 93% 29.59 in 10.0 mi NNW 24.2 mph 31.1 mph N/A   Overcast
12:19 PM 30.2 °F 16.8 °F 28.4 °F 93% 29.60 in 10.0 mi NNW 23.0 mph 33.4 mph N/A   Overcast
12:55 PM 30.0 °F 15.4 °F 26.1 °F 85% 29.64 in 10.0 mi NNW 27.6 mph 35.7 mph N/A   Overcast
1:26 PM 26.6 °F 12.0 °F 24.8 °F 93% 29.63 in 1.8 mi NW 23.0 mph 39.1 mph 0.00 in Snow Light Snow
1:46 PM 26.6 °F 10.0 °F 23.0 °F 86% 29.64 in 0.8 mi NW 31.1 mph 40.3 mph 0.00 in Snow Light Snow
1:55 PM 26.1 °F 9.6 °F 23.0 °F 88% 29.69 in 0.5 mi NW 29.9 mph 40.3 mph 0.00 in Fog , Snow Snow
2:17 PM 24.8 °F 8.7 °F 23.0 °F 93% 29.65 in 0.2 mi NNW 26.5 mph 38.0 mph 0.01 in Fog , Snow Heavy Snow
2:55 PM 24.1 °F 6.6 °F 21.0 °F 88% 29.73 in 0.2 mi NW 31.1 mph 40.3 mph 0.02 in Fog , Snow Heavy Snow
3:11 PM 24.8 °F 9.6 °F 21.2 °F 86% 29.71 in 0.2 mi NW 23.0 mph 42.6 mph 0.01 in Fog , Snow Heavy Snow
3:34 PM 23.0 °F 8.0 °F 19.4 °F 86% 29.72 in 0.5 mi NW 20.7 mph 33.4 mph 0.01 in Fog , Snow Snow
3:48 PM 23.0 °F 6.0 °F 19.4 °F 86% 29.73 in 0.5 mi NW 27.6 mph 35.7 mph 0.02 in Fog , Snow Snow
3:55 PM 21.9 °F 3.9 °F 19.0 °F 89% 29.81 in 0.5 mi NW 29.9 mph 38.0 mph 0.02 in Fog , Snow Snow
4:16 PM 21.2 °F 7.8 °F 19.4 °F 93% 29.78 in 1.0 mi NW 15.0 mph 29.9 mph 0.00 in Snow Light Snow
4:55 PM 21.9 °F 5.5 °F 19.0 °F 89% 29.87 in 1.0 mi NW 24.2 mph 31.1 mph 0.02 in Snow Light Snow
5:31 PM 19.4 °F 1.8 °F 17.6 °F 93% 29.81 in 1.0 mi NW 25.3 mph 36.8 mph 0.00 in Snow Light Snow
5:55 PM 19.9 °F 3.2 °F 16.0 °F 85% 29.88 in 1.2 mi NW 23.0 mph 31.1 mph 0.01 in Snow Light Snow
6:19 PM 19.4 °F 4.1 °F 15.8 °F 86% 29.83 in 2.5 mi NW 18.4 mph 32.2 mph 0.00 in Snow Light Snow
6:34 PM 19.4 °F 1.4 °F 14.0 °F 80% 29.84 in 2.0 mi NW 26.5 mph 35.7 mph 0.00 in Snow Light Snow
6:47 PM 19.4 °F 1.1 °F 14.0 °F 80% 29.84 in 3.0 mi NW 27.6 mph 36.8 mph 0.00 in Snow Light Snow
6:55 PM 19.0 °F 2.0 °F 15.1 °F 85% 29.91 in 3.0 mi NW 23.0 mph 33.4 mph 0.00 in Snow Light Snow
7:04 PM 19.4 °F 2.5 °F 15.8 °F 86% 29.82 in 2.5 mi NW 23.0 mph 36.8 mph 0.00 in Snow Light Snow
7:13 PM 19.4 °F 1.8 °F 14.0 °F 80% 29.83 in 4.0 mi NW 25.3 mph 38.0 mph 0.00 in Snow Light Snow
7:55 PM 19.0 °F 1.3 °F 12.9 °F 77% 29.90 in 7.0 mi NW 25.3 mph 39.1 mph 0.00 in   Overcast
8:55 PM 18.0 °F -0.8 °F 10.9 °F 74% 29.94 in 4.0 mi NW 27.6 mph 38.0 mph N/A Snow Blowing Snow
9:55 PM 18.0 °F 0.6 °F 10.9 °F 74% 29.94 in 10.0 mi NW 23.0 mph 28.8 mph N/A   Overcast
10:55 PM 18.0 °F 0.6 °F 10.9 °F 74% 29.96 in 10.0 mi NW 23.0 mph 29.9 mph N/A   Clear
11:55 PM 16.0 °F -0.9 °F 8.1 °F 71% 29.98 in 10.0 mi NW 19.6 mph 29.9 mph N/A   Overcast